| time (UTC) | temp C | wind direction | speed KPH | gust KPH | rain 1hr cm | rain 24hr cm | rain mn cm | humidity % | barometer mb |
| 20260505173037 | 22 | 300 | 6.4 | 16.1 | 0.00 | 0.00 | 0.00 | 43 | 1014.9 |
| 20260505172533 | 23 | 231 | 4.8 | 14.5 | 0.00 | 0.00 | 0.00 | 40 | 1015.0 |
| 20260505172033 | 22 | 209 | 6.4 | 14.5 | 0.00 | 0.00 | 0.00 | 38 | 1014.9 |
| 20260505171548 | 23 | 0 | 4.8 | 11.3 | 0.00 | 0.00 | 0.00 | 38 | 1014.9 |
| 20260505171033 | 23 | 155 | 1.6 | 17.7 | 0.00 | 0.00 | 0.00 | 41 | 1015.0 |
| 20260505170532 | 23 | 105 | 6.4 | 17.7 | 0.00 | 0.00 | 0.00 | 41 | 1015.1 |
| 20260505170041 | 23 | 61 | 4.8 | 14.5 | 0.00 | 0.00 | 0.00 | 40 | 1015.2 |
| 20260505165530 | 23 | 329 | 3.2 | 14.5 | 0.00 | 0.00 | 0.00 | 39 | 1015.4 |
| 20260505165030 | 22 | 59 | 3.2 | 16.1 | 0.00 | 0.00 | 0.00 | 40 | 1015.5 |
| 20260505164541 | 22 | 224 | 4.8 | 16.1 | 0.00 | 0.00 | 0.00 | 40 | 1015.5 |
| 20260505164031 | 22 | 324 | 3.2 | 14.5 | 0.00 | 0.00 | 0.00 | 41 | 1015.5 |
| 20260505163534 | 22 | 49 | 4.8 | 14.5 | 0.00 | 0.00 | 0.00 | 40 | 1015.6 |
| 20260505163040 | 22 | 313 | 3.2 | 12.9 | 0.00 | 0.00 | 0.00 | 40 | 1015.7 |
| 20260505162529 | 22 | 121 | 3.2 | 12.9 | 0.00 | 0.00 | 0.00 | 40 | 1015.9 |
| 20260505162030 | 22 | 285 | 3.2 | 11.3 | 0.00 | 0.00 | 0.00 | 39 | 1015.9 |
| 20260505161537 | 22 | 98 | 3.2 | 9.7 | 0.00 | 0.00 | 0.00 | 42 | 1016.1 |
| 20260505161029 | 22 | 304 | 3.2 | 16.1 | 0.00 | 0.00 | 0.00 | 40 | 1016.2 |
| 20260505160530 | 22 | 243 | 1.6 | 16.1 | 0.00 | 0.00 | 0.00 | 43 | 1016.2 |
| 20260505153046 | 22 | 41 | 3.2 | 20.9 | 0.00 | 0.00 | 0.00 | 41 | 1016.4 |
| 20260505152531 | 21 | 340 | 3.2 | 20.9 | 0.00 | 0.00 | 0.00 | 41 | 1016.4 |
| 20260505152036 | 21 | 281 | 8.0 | 19.3 | 0.00 | 0.00 | 0.00 | 41 | 1016.5 |
| 20260505151539 | 21 | 5 | 6.4 | 17.7 | 0.00 | 0.00 | 0.00 | 44 | 1016.6 |
| 20260505151033 | 21 | 263 | 8.0 | 17.7 | 0.00 | 0.00 | 0.00 | 44 | 1016.6 |
| 20260505150534 | 21 | 290 | 4.8 | 16.1 | 0.00 | 0.00 | 0.00 | 46 | 1016.6 |
| 20260505140533 | 20 | 216 | 3.2 | 12.9 | 0.00 | 0.00 | 0.00 | 56 | 1016.5 |
| 20260505125033 | 12 | 155 | 1.6 | 8.0 | 0.00 | 0.00 | 0.00 | 78 | 1016.5 |
| 20260505124544 | 12 | 150 | 1.6 | 4.8 | 0.00 | 0.00 | 0.00 | 81 | 1016.6 |
| 20260505124032 | 11 | 155 | 1.6 | 4.8 | 0.00 | 0.00 | 0.00 | 82 | 1016.5 |
| 20260505123533 | 11 | 157 | 1.6 | 3.2 | 0.00 | 0.00 | 0.00 | 82 | 1016.6 |
| 20260505123052 | 11 | 0 | 0.0 | 4.8 | 0.00 | 0.00 | 0.00 | 84 | 1016.6 |
| 20260505122530 | 10 | 0 | 0.0 | 4.8 | 0.00 | 0.00 | 0.00 | 86 | 1016.7 |
| 20260505122030 | 10 | 216 | 0.0 | 4.8 | 0.00 | 0.00 | 0.00 | 88 | 1016.7 |
| 20260505121539 | 10 | 270 | 0.0 | 3.2 | 0.00 | 0.00 | 0.00 | 89 | 1016.6 |
| 20260505121035 | 9 | 0 | 0.0 | 3.2 | 0.00 | 0.00 | 0.00 | 92 | 1016.5 |
| 20260505120533 | 8 | 278 | 0.0 | 3.2 | 0.00 | 0.00 | 0.00 | 93 | 1016.5 |
| 20260505120050 | 8 | 0 | 0.0 | 4.8 | 0.00 | 0.00 | 0.00 | 94 | 1016.5 |
| 20260505115533 | 7 | 277 | 0.0 | 4.8 | 0.00 | 0.00 | 0.00 | 95 | 1016.5 |
| 20260505115032 | 6 | 279 | 0.0 | 3.2 | 0.00 | 0.00 | 0.00 | 95 | 1016.5 |
| 20260505114546 | 5 | 0 | 0.0 | 0.0 | 0.00 | 0.00 | 0.00 | 95 | 1016.4 |
| 20260505114033 | 5 | 0 | 0.0 | 3.2 | 0.00 | 0.00 | 0.00 | 94 | 1016.4 |
| 20260505113532 | 5 | 0 | 0.0 | 3.2 | 0.00 | 0.00 | 0.00 | 94 | 1016.4 |
| 20260505113039 | 5 | 0 | 0.0 | 1.6 | 0.00 | 0.00 | 0.00 | 94 | 1016.6 |
| 20260505112530 | 4 | 0 | 0.0 | 1.6 | 0.00 | 0.00 | 0.00 | 94 | 1016.7 |
| 20260505112033 | 4 | 0 | 0.0 | 1.6 | 0.00 | 0.00 | 0.00 | 94 | 1016.6 |
| 20260505111538 | 4 | 0 | 0.0 | 1.6 | 0.00 | 0.00 | 0.00 | 94 | 1016.5 |
| 20260505111033 | 4 | 0 | 0.0 | 1.6 | 0.00 | 0.00 | 0.00 | 94 | 1016.5 |
| 20260505110530 | 4 | 0 | 0.0 | 1.6 | 0.00 | 0.00 | 0.00 | 94 | 1016.5 |
| 20260505102032 | 3 | 360 | 0.0 | 3.2 | 0.00 | 0.00 | 0.00 | 92 | 1015.9 |
| 20260505101537 | 3 | 0 | 0.0 | 4.8 | 0.00 | 0.00 | 0.00 | 94 | 1015.8 |
| 20260505101034 | 3 | 360 | 1.6 | 4.8 | 0.00 | 0.00 | 0.00 | 93 | 1015.8 |
| 20260505100530 | 3 | 360 | 3.2 | 4.8 | 0.00 | 0.00 | 0.00 | 92 | 1015.8 |
| 20260505100039 | 5 | 0 | 0.0 | 3.2 | 0.00 | 0.00 | 0.00 | 94 | 1015.8 |
| 20260505095529 | 4 | 0 | 0.0 | 4.8 | 0.00 | 0.00 | 0.00 | 94 | 1015.8 |
| 20260505095033 | 4 | 0 | 1.6 | 4.8 | 0.00 | 0.00 | 0.00 | 93 | 1015.7 |
| 20260505094548 | 5 | 360 | 0.0 | 1.6 | 0.00 | 0.00 | 0.00 | 92 | 1015.6 |
| 20260505094033 | 5 | 0 | 0.0 | 4.8 | 0.00 | 0.00 | 0.00 | 94 | 1015.7 |
| 20260505093533 | 4 | 0 | 0.0 | 4.8 | 0.00 | 0.00 | 0.00 | 93 | 1015.7 |
| 20260505093041 | 4 | 360 | 1.6 | 3.2 | 0.00 | 0.00 | 0.00 | 93 | 1015.6 |
| 20260505092533 | 4 | 0 | 0.0 | 3.2 | 0.00 | 0.00 | 0.00 | 92 | 1015.6 |
| 20260505092030 | 5 | 0 | 0.0 | 3.2 | 0.00 | 0.00 | 0.00 | 93 | 1015.6 |
| 20260505091541 | 5 | 0 | 0.0 | 4.8 | 0.00 | 0.00 | 0.00 | 93 | 1015.6 |
| 20260505091033 | 4 | 0 | 1.6 | 4.8 | 0.00 | 0.00 | 0.00 | 93 | 1015.6 |
| 20260505090532 | 4 | 360 | 3.2 | 4.8 | 0.00 | 0.00 | 0.00 | 92 | 1015.6 |
| 20260505090040 | 4 | 360 | 1.6 | 4.8 | 0.00 | 0.00 | 0.00 | 92 | 1015.7 |
| 20260505085530 | 5 | 360 | 1.6 | 4.8 | 0.00 | 0.00 | 0.00 | 93 | 1015.6 |
| 20260505085033 | 5 | 0 | 1.6 | 4.8 | 0.00 | 0.00 | 0.00 | 93 | 1015.7 |
| 20260505084558 | 5 | 0 | 0.0 | 3.2 | 0.00 | 0.00 | 0.00 | 93 | 1015.7 |
| 20260505084029 | 5 | 0 | 0.0 | 3.2 | 0.00 | 0.00 | 0.00 | 92 | 1015.6 |
| 20260505083533 | 5 | 0 | 0.0 | 3.2 | 0.00 | 0.00 | 0.00 | 93 | 1015.8 |
| 20260505083102 | 4 | 0 | 1.6 | 3.2 | 0.00 | 0.00 | 0.00 | 92 | 1015.7 |
| 20260505082529 | 4 | 0 | 0.0 | 4.8 | 0.00 | 0.00 | 0.00 | 92 | 1015.7 |
| 20260505082054 | 5 | 0 | 1.6 | 4.8 | 0.00 | 0.00 | 0.00 | 93 | 1015.7 |
| 20260505081556 | 4 | 0 | 0.0 | 3.2 | 0.00 | 0.00 | 0.00 | 93 | 1015.7 |
| 20260505081030 | 4 | 360 | 0.0 | 3.2 | 0.00 | 0.00 | 0.00 | 92 | 1015.5 |
| 20260505080532 | 4 | 0 | 0.0 | 1.6 | 0.00 | 0.00 | 0.00 | 92 | 1015.5 |
| 20260505080052 | 4 | 0 | 0.0 | 3.2 | 0.00 | 0.00 | 0.00 | 91 | 1015.5 |
| 20260505075533 | 5 | 0 | 0.0 | 3.2 | 0.00 | 0.00 | 0.00 | 91 | 1015.4 |
| 20260505075030 | 5 | 360 | 0.0 | 3.2 | 0.00 | 0.00 | 0.00 | 92 | 1015.4 |
| 20260505074539 | 5 | 0 | 0.0 | 4.8 | 0.00 | 0.00 | 0.00 | 92 | 1015.2 |
| 20260505074030 | 4 | 360 | 1.6 | 4.8 | 0.00 | 0.00 | 0.00 | 90 | 1015.2 |
| 20260505073535 | 5 | 360 | 0.0 | 4.8 | 0.00 | 0.00 | 0.00 | 90 | 1015.1 |
| 20260505073050 | 5 | 0 | 0.0 | 3.2 | 0.00 | 0.00 | 0.00 | 89 | 1015.0 |
| 20260505072530 | 6 | 360 | 0.0 | 4.8 | 0.00 | 0.00 | 0.00 | 92 | 1014.9 |
| 20260505072029 | 5 | 0 | 1.6 | 4.8 | 0.00 | 0.00 | 0.00 | 90 | 1014.9 |
| 20260505071549 | 6 | 0 | 0.0 | 3.2 | 0.00 | 0.00 | 0.00 | 90 | 1014.8 |
| 20260505071035 | 6 | 0 | 0.0 | 3.2 | 0.00 | 0.00 | 0.00 | 90 | 1014.8 |
| 20260505070535 | 6 | 360 | 0.0 | 3.2 | 0.00 | 0.00 | 0.00 | 90 | 1014.7 |
| 20260505070051 | 6 | 0 | 0.0 | 4.8 | 0.00 | 0.00 | 0.00 | 89 | 1014.8 |
| 20260505065534 | 6 | 0 | 0.0 | 4.8 | 0.00 | 0.00 | 0.00 | 90 | 1014.6 |
| 20260505065031 | 6 | 360 | 1.6 | 4.8 | 0.00 | 0.00 | 0.00 | 90 | 1014.6 |
| 20260505064541 | 7 | 360 | 0.0 | 3.2 | 0.00 | 0.00 | 0.00 | 90 | 1014.5 |
| 20260505064033 | 7 | 360 | 0.0 | 3.2 | 0.00 | 0.00 | 0.00 | 90 | 1014.5 |
| 20260505063530 | 7 | 360 | 0.0 | 3.2 | 0.00 | 0.00 | 0.00 | 90 | 1014.5 |
| 20260505063040 | 6 | 360 | 0.0 | 3.2 | 0.00 | 0.00 | 0.00 | 90 | 1014.5 |
| 20260505062530 | 7 | 360 | 1.6 | 3.2 | 0.00 | 0.00 | 0.00 | 89 | 1014.5 |
| 20260505062030 | 7 | 360 | 0.0 | 3.2 | 0.00 | 0.00 | 0.00 | 89 | 1014.4 |
| 20260505061537 | 7 | 0 | 0.0 | 3.2 | 0.00 | 0.00 | 0.00 | 89 | 1014.5 |
| 20260505061029 | 7 | 0 | 0.0 | 4.8 | 0.00 | 0.00 | 0.00 | 88 | 1014.4 |
| 20260505060529 | 7 | 360 | 1.6 | 4.8 | 0.00 | 0.00 | 0.00 | 88 | 1014.4 |
| 20260505060055 | 7 | 279 | 0.0 | 6.4 | 0.00 | 0.00 | 0.00 | 88 | 1014.4 |
| 20260505055529 | 7 | 279 | 0.0 | 6.4 | 0.00 | 0.00 | 0.00 | 89 | 1014.4 |
| 20260505055031 | 7 | 279 | 3.2 | 6.4 | 0.00 | 0.00 | 0.00 | 88 | 1014.4 |
| 20260505054538 | 8 | 0 | 0.0 | 4.8 | 0.00 | 0.00 | 0.00 | 89 | 1014.3 |
| 20260505054037 | 7 | 0 | 0.0 | 4.8 | 0.00 | 0.00 | 0.00 | 89 | 1014.3 |
| 20260505053529 | 7 | 284 | 1.6 | 4.8 | 0.00 | 0.00 | 0.00 | 88 | 1014.4 |
| 20260505053041 | 7 | 282 | 0.0 | 6.4 | 0.00 | 0.00 | 0.00 | 88 | 1014.4 |
| 20260505052530 | 8 | 282 | 1.6 | 6.4 | 0.00 | 0.00 | 0.00 | 88 | 1014.4 |
| 20260505052032 | 7 | 297 | 1.6 | 4.8 | 0.00 | 0.00 | 0.00 | 88 | 1014.4 |
| 20260505051539 | 7 | 0 | 1.6 | 4.8 | 0.00 | 0.00 | 0.00 | 87 | 1014.4 |
| 20260505051030 | 8 | 360 | 0.0 | 3.2 | 0.00 | 0.00 | 0.00 | 88 | 1014.3 |
| 20260505050530 | 8 | 0 | 0.0 | 4.8 | 0.00 | 0.00 | 0.00 | 86 | 1014.3 |
| 20260505041551 | 9 | 0 | 0.0 | 4.8 | 0.00 | 0.00 | 0.00 | 85 | 1014.2 |
| 20260505041033 | 9 | 360 | 0.0 | 4.8 | 0.00 | 0.00 | 0.00 | 85 | 1014.1 |
| 20260505040533 | 10 | 0 | 0.0 | 4.8 | 0.00 | 0.00 | 0.00 | 85 | 1014.2 |
| 20260505040047 | 10 | 360 | 0.0 | 3.2 | 0.00 | 0.00 | 0.00 | 84 | 1014.2 |
| 20260505035534 | 10 | 0 | 0.0 | 3.2 | 0.00 | 0.00 | 0.00 | 83 | 1014.2 |
| 20260505035029 | 10 | 0 | 0.0 | 4.8 | 0.00 | 0.00 | 0.00 | 83 | 1014.2 |
| 20260505034538 | 10 | 347 | 1.6 | 4.8 | 0.00 | 0.00 | 0.00 | 82 | 1014.3 |
| 20260505034030 | 10 | 0 | 0.0 | 3.2 | 0.00 | 0.00 | 0.00 | 82 | 1014.3 |
| 20260505033530 | 10 | 0 | 0.0 | 3.2 | 0.00 | 0.00 | 0.00 | 82 | 1014.3 |
| 20260505033044 | 10 | 347 | 0.0 | 1.6 | 0.00 | 0.00 | 0.00 | 81 | 1014.4 |
| 20260505032530 | 10 | 0 | 0.0 | 3.2 | 0.00 | 0.00 | 0.00 | 81 | 1014.3 |
| 20260505032032 | 10 | 347 | 0.0 | 3.2 | 0.00 | 0.00 | 0.00 | 81 | 1014.4 |
| 20260505031544 | 10 | 347 | 1.6 | 4.8 | 0.00 | 0.00 | 0.00 | 80 | 1014.4 |
| 20260505031034 | 10 | 0 | 0.0 | 4.8 | 0.00 | 0.00 | 0.00 | 79 | 1014.5 |
| 20260505030537 | 11 | 0 | 0.0 | 4.8 | 0.00 | 0.00 | 0.00 | 78 | 1014.6 |
| 20260505030104 | 11 | 348 | 0.0 | 3.2 | 0.00 | 0.00 | 0.00 | 77 | 1014.5 |
| 20260505025533 | 11 | 0 | 0.0 | 9.7 | 0.00 | 0.00 | 0.00 | 77 | 1014.5 |
| 20260505025032 | 11 | 355 | 0.0 | 9.7 | 0.00 | 0.00 | 0.00 | 76 | 1014.6 |
| 20260505024545 | 11 | 355 | 1.6 | 9.7 | 0.00 | 0.00 | 0.00 | 77 | 1014.5 |
| 20260505024033 | 11 | 0 | 0.0 | 4.8 | 0.00 | 0.00 | 0.00 | 77 | 1014.6 |
| 20260505023533 | 11 | 96 | 0.0 | 4.8 | 0.00 | 0.00 | 0.00 | 78 | 1014.6 |
| 20260505023040 | 11 | 96 | 0.0 | 6.4 | 0.00 | 0.00 | 0.00 | 78 | 1014.6 |
| 20260505022530 | 11 | 0 | 0.0 | 6.4 | 0.00 | 0.00 | 0.00 | 78 | 1014.6 |
| 20260505022030 | 11 | 157 | 0.0 | 4.8 | 0.00 | 0.00 | 0.00 | 78 | 1014.6 |
| 20260505021545 | 11 | 96 | 0.0 | 9.7 | 0.00 | 0.00 | 0.00 | 79 | 1014.6 |
| 20260505021029 | 11 | 0 | 1.6 | 9.7 | 0.00 | 0.00 | 0.00 | 78 | 1014.6 |
| 20260505020529 | 11 | 290 | 1.6 | 9.7 | 0.00 | 0.00 | 0.00 | 79 | 1014.7 |
| 20260505020047 | 11 | 0 | 0.0 | 1.6 | 0.00 | 0.00 | 0.00 | 80 | 1014.6 |
| 20260505015533 | 11 | 0 | 0.0 | 3.2 | 0.00 | 0.00 | 0.00 | 79 | 1014.7 |
| 20260505015031 | 11 | 0 | 0.0 | 6.4 | 0.00 | 0.00 | 0.00 | 79 | 1014.7 |
| 20260505014603 | 11 | 0 | 0.0 | 6.4 | 0.00 | 0.00 | 0.00 | 79 | 1014.6 |
| 20260505014034 | 11 | 252 | 0.0 | 6.4 | 0.00 | 0.00 | 0.00 | 78 | 1014.6 |
| 20260505013534 | 12 | 0 | 0.0 | 4.8 | 0.00 | 0.00 | 0.00 | 77 | 1014.6 |
| 20260505013049 | 12 | 0 | 0.0 | 4.8 | 0.00 | 0.00 | 0.00 | 77 | 1014.5 |
| 20260505012534 | 12 | 276 | 1.6 | 6.4 | 0.00 | 0.00 | 0.00 | 79 | 1014.5 |
| 20260505012033 | 11 | 276 | 1.6 | 6.4 | 0.00 | 0.00 | 0.00 | 80 | 1014.4 |
| 20260505011543 | 11 | 252 | 0.0 | 4.8 | 0.00 | 0.00 | 0.00 | 79 | 1014.5 |
| 20260505011032 | 11 | 252 | 1.6 | 4.8 | 0.00 | 0.00 | 0.00 | 79 | 1014.4 |
| 20260505010530 | 11 | 252 | 1.6 | 4.8 | 0.00 | 0.00 | 0.00 | 80 | 1014.3 |
| 20260505010052 | 11 | 252 | 1.6 | 4.8 | 0.00 | 0.00 | 0.00 | 77 | 1014.3 |
| 20260505005531 | 12 | 252 | 0.0 | 3.2 | 0.00 | 0.00 | 0.00 | 74 | 1014.2 |
| 20260505005031 | 12 | 0 | 0.0 | 3.2 | 0.00 | 0.00 | 0.00 | 76 | 1014.2 |
| 20260505004547 | 12 | 252 | 0.0 | 3.2 | 0.00 | 0.00 | 0.00 | 73 | 1014.0 |
| 20260505004033 | 13 | 0 | 0.0 | 8.0 | 0.00 | 0.00 | 0.00 | 71 | 1013.9 |
| 20260505003529 | 14 | 252 | 0.0 | 8.0 | 0.00 | 0.00 | 0.00 | 69 | 1013.9 |
| 20260505003055 | 14 | 252 | 4.8 | 8.0 | 0.00 | 0.00 | 0.00 | 65 | 1013.8 |
| 20260505002532 | 15 | 232 | 3.2 | 6.4 | 0.00 | 0.00 | 0.00 | 64 | 1013.7 |
| 20260505002033 | 15 | 232 | 1.6 | 6.4 | 0.00 | 0.00 | 0.00 | 63 | 1013.7 |
| 20260505001546 | 16 | 232 | 3.2 | 9.7 | 0.00 | 0.00 | 0.00 | 59 | 1013.7 |
| 20260505001033 | 17 | 228 | 3.2 | 9.7 | 0.00 | 0.00 | 0.00 | 54 | 1013.6 |
| 20260505000533 | 17 | 247 | 1.6 | 6.4 | 0.00 | 0.00 | 0.00 | 55 | 1013.6 |
| 20260505000048 | 17 | 244 | 1.6 | 6.4 | 0.00 | 0.00 | 0.00 | 52 | 1013.5 |
| 20260504235533 | 18 | 246 | 1.6 | 6.4 | 0.00 | 0.00 | 0.00 | 53 | 1013.5 |
| 20260504235032 | 18 | 252 | 0.0 | 4.8 | 0.00 | 0.00 | 0.00 | 52 | 1013.4 |
| 20260504234540 | 20 | 0 | 0.0 | 4.8 | 0.00 | 0.00 | 0.00 | 49 | 1013.5 |
| 20260504234033 | 20 | 252 | 0.0 | 4.8 | 0.00 | 0.00 | 0.00 | 45 | 1013.4 |
| 20260504233534 | 21 | 0 | 0.0 | 4.8 | 0.00 | 0.00 | 0.00 | 45 | 1013.5 |
| 20260504233047 | 21 | 0 | 0.0 | 6.4 | 0.00 | 0.00 | 0.00 | 44 | 1013.4 |
| 20260504232534 | 21 | 186 | 1.6 | 8.0 | 0.00 | 0.00 | 0.00 | 42 | 1013.4 |
| 20260504232033 | 22 | 274 | 1.6 | 14.5 | 0.00 | 0.00 | 0.00 | 43 | 1013.4 |
| 20260504231537 | 22 | 223 | 1.6 | 14.5 | 0.00 | 0.00 | 0.00 | 44 | 1013.4 |
| 20260504231033 | 22 | 233 | 1.6 | 14.5 | 0.00 | 0.00 | 0.00 | 42 | 1013.4 |
| 20260504230529 | 22 | 342 | 3.2 | 14.5 | 0.00 | 0.00 | 0.00 | 42 | 1013.4 |
| 20260504230047 | 22 | 239 | 4.8 | 12.9 | 0.00 | 0.00 | 0.00 | 42 | 1013.4 |
| 20260504225530 | 22 | 157 | 3.2 | 11.3 | 0.00 | 0.00 | 0.00 | 43 | 1013.4 |
| 20260504225034 | 22 | 292 | 1.6 | 11.3 | 0.00 | 0.00 | 0.00 | 42 | 1013.4 |
| 20260504224543 | 22 | 336 | 3.2 | 12.9 | 0.00 | 0.00 | 0.00 | 43 | 1013.4 |
| 20260504224034 | 22 | 248 | 1.6 | 12.9 | 0.00 | 0.00 | 0.00 | 43 | 1013.5 |
| 20260504223529 | 22 | 181 | 3.2 | 12.9 | 0.00 | 0.00 | 0.00 | 42 | 1013.4 |
| 20260504223058 | 23 | 213 | 3.2 | 12.9 | 0.00 | 0.00 | 0.00 | 42 | 1013.4 |
| 20260504222535 | 23 | 47 | 3.2 | 14.5 | 0.00 | 0.00 | 0.00 | 41 | 1013.6 |
| 20260504222033 | 23 | 232 | 3.2 | 14.5 | 0.00 | 0.00 | 0.00 | 43 | 1013.5 |
| 20260504221551 | 23 | 328 | 3.2 | 20.9 | 0.00 | 0.00 | 0.00 | 41 | 1013.4 |
| 20260504221032 | 23 | 231 | 6.4 | 20.9 | 0.00 | 0.00 | 0.00 | 43 | 1013.4 |
| 20260504220530 | 23 | 225 | 4.8 | 24.1 | 0.00 | 0.00 | 0.00 | 43 | 1013.5 |
| 20260504220050 | 22 | 234 | 8.0 | 24.1 | 0.00 | 0.00 | 0.00 | 41 | 1013.4 |
| 20260504215529 | 23 | 246 | 8.0 | 20.9 | 0.00 | 0.00 | 0.00 | 42 | 1013.6 |
| 20260504215036 | 23 | 259 | 3.2 | 17.7 | 0.00 | 0.00 | 0.00 | 43 | 1013.5 |
| 20260504214542 | 23 | 289 | 6.4 | 24.1 | 0.00 | 0.00 | 0.00 | 41 | 1013.6 |
| 20260504214031 | 23 | 55 | 9.7 | 24.1 | 0.00 | 0.00 | 0.00 | 41 | 1013.6 |
| 20260504213530 | 23 | 259 | 4.8 | 20.9 | 0.00 | 0.00 | 0.00 | 40 | 1013.7 |
| 20260504213047 | 23 | 275 | 4.8 | 20.9 | 0.00 | 0.00 | 0.00 | 41 | 1013.6 |
| 20260504212530 | 24 | 257 | 8.0 | 20.9 | 0.00 | 0.00 | 0.00 | 39 | 1013.6 |
| 20260504212029 | 23 | 114 | 4.8 | 19.3 | 0.00 | 0.00 | 0.00 | 43 | 1013.7 |
| 20260504211620 | 23 | 162 | 8.0 | 19.3 | 0.00 | 0.00 | 0.00 | 43 | 1013.7 |
| 20260504211029 | 23 | 288 | 6.4 | 19.3 | 0.00 | 0.00 | 0.00 | 41 | 1013.5 |
| 20260504210531 | 23 | 278 | 4.8 | 25.7 | 0.00 | 0.00 | 0.00 | 44 | 1013.5 |
| 20260504210049 | 23 | 242 | 9.7 | 25.7 | 0.00 | 0.00 | 0.00 | 41 | 1013.5 |
| 20260504205532 | 23 | 210 | 6.4 | 30.6 | 0.00 | 0.00 | 0.00 | 40 | 1013.5 |
| 20260504205033 | 23 | 229 | 1.6 | 30.6 | 0.00 | 0.00 | 0.00 | 43 | 1013.5 |
| 20260504204538 | 23 | 313 | 6.4 | 29.0 | 0.00 | 0.00 | 0.00 | 44 | 1013.6 |
| 20260504204033 | 23 | 237 | 8.0 | 20.9 | 0.00 | 0.00 | 0.00 | 42 | 1013.4 |
| 20260504203530 | 23 | 254 | 4.8 | 16.1 | 0.00 | 0.00 | 0.00 | 45 | 1013.5 |
| 20260504203039 | 23 | 339 | 3.2 | 16.1 | 0.00 | 0.00 | 0.00 | 41 | 1013.6 |
| 20260504202534 | 23 | 63 | 3.2 | 14.5 | 0.00 | 0.00 | 0.00 | 42 | 1013.7 |
| 20260504202029 | 23 | 324 | 4.8 | 14.5 | 0.00 | 0.00 | 0.00 | 43 | 1013.7 |
| 20260504201547 | 23 | 249 | 4.8 | 14.5 | 0.00 | 0.00 | 0.00 | 43 | 1013.6 |
| 20260504201032 | 22 | 220 | 6.4 | 14.5 | 0.00 | 0.00 | 0.00 | 49 | 1013.6 |
| 20260504200529 | 23 | 246 | 4.8 | 16.1 | 0.00 | 0.00 | 0.00 | 46 | 1013.7 |
| 20260504200045 | 21 | 230 | 6.4 | 16.1 | 0.00 | 0.00 | 0.00 | 48 | 1013.8 |
| 20260504195531 | 21 | 0 | 1.6 | 14.5 | 0.00 | 0.00 | 0.00 | 46 | 1013.9 |
| 20260504195029 | 21 | 241 | 4.8 | 14.5 | 0.00 | 0.00 | 0.00 | 48 | 1014.0 |
| 20260504194534 | 21 | 209 | 3.2 | 19.3 | 0.00 | 0.00 | 0.00 | 47 | 1014.0 |
| 20260504194029 | 21 | 267 | 8.0 | 19.3 | 0.00 | 0.00 | 0.00 | 47 | 1014.1 |
| 20260504193531 | 21 | 229 | 3.2 | 16.1 | 0.00 | 0.00 | 0.00 | 49 | 1014.0 |
| 20260504193036 | 22 | 271 | 4.8 | 20.9 | 0.00 | 0.00 | 0.00 | 45 | 1014.2 |
| 20260504192529 | 22 | 348 | 4.8 | 20.9 | 0.00 | 0.00 | 0.00 | 44 | 1014.3 |
| 20260504192029 | 22 | 243 | 9.7 | 25.7 | 0.00 | 0.00 | 0.00 | 45 | 1014.3 |
| 20260504191551 | 22 | 224 | 4.8 | 25.7 | 0.00 | 0.00 | 0.00 | 47 | 1014.5 |
| 20260504191031 | 22 | 281 | 3.2 | 16.1 | 0.00 | 0.00 | 0.00 | 47 | 1014.5 |
| 20260504190529 | 21 | 0 | 4.8 | 16.1 | 0.00 | 0.00 | 0.00 | 46 | 1014.5 |
| 20260504190045 | 22 | 327 | 6.4 | 19.3 | 0.00 | 0.00 | 0.00 | 46 | 1014.7 |
| 20260504185529 | 21 | 350 | 6.4 | 19.3 | 0.00 | 0.00 | 0.00 | 46 | 1014.6 |
| 20260504185029 | 22 | 252 | 6.4 | 12.9 | 0.00 | 0.00 | 0.00 | 49 | 1014.6 |
| 20260504184547 | 22 | 55 | 1.6 | 12.9 | 0.00 | 0.00 | 0.00 | 48 | 1014.6 |
| 20260504184033 | 21 | 250 | 6.4 | 12.9 | 0.00 | 0.00 | 0.00 | 48 | 1014.6 |
| 20260504183531 | 21 | 240 | 4.8 | 30.6 | 0.00 | 0.00 | 0.00 | 47 | 1014.6 |
| 20260504183038 | 21 | 273 | 6.4 | 30.6 | 0.00 | 0.00 | 0.00 | 49 | 1015.0 |
| 20260504182529 | 21 | 230 | 4.8 | 14.5 | 0.00 | 0.00 | 0.00 | 50 | 1014.9 |
| 20260504182031 | 21 | 273 | 4.8 | 12.9 | 0.00 | 0.00 | 0.00 | 50 | 1015.1 |
| 20260504181538 | 21 | 41 | 3.2 | 16.1 | 0.00 | 0.00 | 0.00 | 53 | 1015.1 |
| 20260504181030 | 20 | 336 | 3.2 | 16.1 | 0.00 | 0.00 | 0.00 | 50 | 1015.0 |
| 20260504180530 | 21 | 240 | 6.4 | 14.5 | 0.00 | 0.00 | 0.00 | 51 | 1015.0 |
| 20260504180044 | 20 | 340 | 3.2 | 22.5 | 0.00 | 0.00 | 0.00 | 53 | 1015.0 |
| 20260504175529 | 20 | 253 | 11.3 | 22.5 | 0.00 | 0.00 | 0.00 | 52 | 1015.2 |
| 20260504175029 | 21 | 284 | 8.0 | 22.5 | 0.00 | 0.00 | 0.00 | 50 | 1015.2 |
| 20260504174544 | 20 | 249 | 4.8 | 16.1 | 0.00 | 0.00 | 0.00 | 56 | 1015.3 |
| 20260504174029 | 20 | 254 | 3.2 | 8.0 | 0.00 | 0.00 | 0.00 | 53 | 1015.3 |
| 20260504173530 | 19 | 242 | 1.6 | 11.3 | 0.00 | 0.00 | 0.00 | 54 | 1015.7 |